Simultaneous Nadir Overpasses (SNOs) Predictions

Prediction of SNOs between NOAA-19 and TERRA Satellite Orbit:

Table of predicted SNOs for the next 14.0 days since TLE Epoch: 7/6/2019
Index Date (NOAA-19) Time (NOAA-19) Lat,Lon (NOAA-19) SZA (NOAA-19 ) Date (TERRA) Time (TERRA) Lat,Lon (TERRA) SZA (TERRA ) Distance(km) Time Diff (sec)
1 07/08/2019 08:44:34 -78.58,-108.91 123.14 07/08/2019 08:45:46 -78.56,-108.70 123.11 4.60 72
2 07/08/2019 09:35:29 78.54, 58.64 56.85 07/08/2019 09:35:13 78.51, 58.67 56.83 2.52 16
3 07/10/2019 15:08:58 -78.54, 155.29 122.88 07/10/2019 15:08:57 -78.52, 155.26 122.91 3.09 1
4 07/12/2019 20:42:19 78.55,-108.02 57.43 07/12/2019 20:42:39 78.54,-108.08 57.41 2.37 20
5 07/12/2019 21:33:20 -78.44, 59.94 122.61 07/12/2019 21:32:06 -78.55, 59.64 122.57 13.55 74
6 07/15/2019 02:15:47 -78.55, -11.31 122.25 07/15/2019 02:16:22 -78.58, -11.29 122.21 2.62 35
7 07/15/2019 03:06:44 78.55, 155.98 57.76 07/15/2019 03:05:49 78.52, 156.05 57.72 3.65 55
8 07/17/2019 07:49:09 78.58, 85.28 58.13 07/17/2019 07:50:04 78.59, 85.33 58.16 1.40 55
9 07/17/2019 08:40:11 -78.53,-107.19 121.88 07/17/2019 08:39:32 -78.56,-107.16 121.87 3.17 39
10 07/19/2019 13:22:36 -78.58,-178.01 121.48 07/19/2019 13:23:48 -78.58,-178.12 121.46 2.49 72




NCC Satellite Simultaneous Nadir Overpasses (SNOs) Prediction Service
